Preview of NWS' New Version of Forecast
This preview is not operational and should not be used for support decisions.

Regional Weather Roundup (RWR)

Issued by Gray - Portland, ME (GYX)

                            
000
ASUS41 KGYX 171310
RWRGYX
WEATHER ROUNDUP FOR MAINE AND NEW HAMPSHIRE
NATIONAL WEATHER SERVICE GRAY ME
800 AM EST THU JAN 17 2019

MEZ002-005-006-010-012-015-018-020-021-024-026-027-029-171400-
MAINE
  
CITY           SKY/WX    TMP DP  RH WIND       PRES   REMARKS
PORTLAND       FAIR      10  -1  61 N7        30.35R                  
SANFORD        FAIR       9  -5  53 VRB5      30.34R                  
BAR HARBOR     FAIR       7  -6  55 NW7       30.33R                  
WISCASSET      FAIR       8  -3  61 VRB3      30.35R                  
ROCKLAND       FAIR       7  -5  57 NW8       30.33R                  
FRYEBURG       FAIR       5 -13  43 W6        30.32R                  
LEWISTONAUBURN FAIR       7  -7  52 N8        30.33R                  
AUGUSTA        FAIR       4  -6  63 N10       30.33R WCI -11          
WATERVILLE     FAIR       4  -7  60 MISG      30.30R                  
BANGOR         FAIR       4  -7  60 NW10      30.33R WCI -11          
GREENVILLE       N/A     -6 -17  59 NW16      30.17R WCI -28          
MILLINOCKET    FAIR      -3 -15  56 NW10      30.28R WCI -20          
HOULTON        FAIR      -6 -14  68 NW6       30.24R                  
PRESQUE ISLE   FAIR      -7 -15  68 W8        30.24R                  
FRENCHVILLE    FAIR     -12 -21  64 NW12      30.15R WCI -32          
CARIBOU        FAIR      -9 -16  71 CALM      30.21R                  
$$

NHZ002-005-008-009-011-012-014-171400-
NEW HAMPSHIRE
  
CITY           SKY/WX    TMP DP  RH WIND       PRES   REMARKS
PORTSMOUTH     PTCLDY    12 -11  35 W10       30.33S WCI  -2          
ROCHESTER      FAIR       9  -6  50 NW12      30.32R WCI  -6          
NASHUA         FAIR      11  -1  58 NW10      30.38R WCI  -3          
MANCHESTER     FAIR      11  -3  53 NW10      30.36R WCI  -3          
CONCORD        FAIR       7  -3  64 NW9       30.37R                  
LACONIA        FAIR       2  -5  72 SW5       30.36R                  
PLYMOUTH       FAIR       0  -6  73 CALM      30.37R                  
BERLIN         FAIR      -1 -10  65 VRB5      30.28R                  
WHITEFIELD     FAIR     -12 -17  78 CALM      30.31R                  
JAFFREY        FAIR       8   0  69 CALM      30.30R                  
KEENE          FAIR       6   1  80 CALM      30.38R                  
LEBANON        FAIR     -10 -16  74 CALM      30.38R                  
MT WASHINGTON  NOT AVBL                                               
$$

VTZ005-007-008-171400-
VERMONT
  
CITY           SKY/WX    TMP DP  RH WIND       PRES   REMARKS
ST JOHNSBURY     N/A     -7 -11  83 MISG      30.36R                  
MONTPELIER     FAIR      -6  -9  86 CALM      30.34R                  
BURLINGTON     FAIR       0  -7  72 NE5       30.42R                  
$$

MAZ007-012-024-CTZ003-RIZ002-NYZ038-NYZ072-171400-
SOUTHERN NEW ENGLAND AND NY
  
CITY           SKY/WX    TMP DP  RH WIND       PRES   REMARKS
BOSTON         FAIR      18  -4  37 NW15      30.37R WCI   4          
WORCESTER      FAIR      11  -1  58 NW6       30.29R                  
NANTUCKET      FAIR      26  11  52 N18       30.33R WCI  13          
PROVIDENCE     MOCLDY    21   2  43 N9        30.37R                  
HARTFORD       MOCLDY    19  -3  38 N6        30.39R                  
ALBANY         FAIR      10  -4  53 CALM      30.44R                  
NEW YORK CITY  MOCLDY    26  10  50 N8        30.39R                  
$$

ANZ081-ANZ082-ANZ150-NHZ014-MEZ023>029-171400-
COASTAL MARINE OBSERVATIONS
  
STATION/POSITION TIME  TEMP    WIND        PRES    WAVE
                       AIR SEA DIR/SP/G            HT/PER
                 (UTC) (F)     (DEG/KT/KT) (MB)    (FT/S)
MOUNT DESERT ROC 1300   15     310/ 25/ 28 1025.9R
MATINICUS ROCK   1200   12     320/ 27/ 30 1025.1R
ISLE OF SHOALS   1200   14     310/ 21/ 24 1026.8R
CASHES LEDGE BUO 1250   22 40              1025.8R   6/ 6
$$

.............KEY..............
   WCI - WIND CHILL
   TC  - TEMPERATURE IN CELSIUS
   VSB - VISIBILITY IN MILES
   HX  - HEAT INDEX
   FAIR- INDICATES FEW OR NO CLOUDS BELOW 12,000 FT, WITH NO 
         SIGNIFICANT WEATHER AND/OR OBSTRUCTIONS TO VISIBILITY.